| time (UTC) | temp F | wind direction | speed MPH | gust MPH | rain 1hr in | rain 24hr in | rain mn in | humidity % | barometer mb |
| 20260507054040 | 62 | 5 | 0.0 | 13.0 | 0.00 | 0.01 | 0.00 | 86 | 1014.7 |
| 20260507053538 | 62 | 18 | 3.0 | 13.0 | 0.00 | 0.01 | 0.00 | 86 | 1015.0 |
| 20260507053046 | 62 | 0 | 1.0 | 12.0 | 0.00 | 0.01 | 0.00 | 86 | 1015.1 |
| 20260507052539 | 62 | 360 | 2.0 | 14.0 | 0.00 | 0.01 | 0.00 | 86 | 1014.6 |
| 20260507052037 | 62 | 352 | 2.0 | 14.0 | 0.00 | 0.01 | 0.00 | 86 | 1014.8 |
| 20260507051548 | 62 | 5 | 1.0 | 12.0 | 0.00 | 0.01 | 0.00 | 85 | 1014.6 |
| 20260507051036 | 62 | 360 | 3.0 | 12.0 | 0.00 | 0.01 | 0.00 | 85 | 1014.9 |
| 20260507050536 | 62 | 0 | 1.0 | 12.0 | 0.00 | 0.01 | 0.00 | 85 | 1014.6 |
| 20260507050049 | 63 | 0 | 2.0 | 12.0 | 0.00 | 0.01 | 0.00 | 85 | 1014.6 |
| 20260507045540 | 63 | 31 | 2.0 | 12.0 | 0.00 | 0.01 | 0.01 | 85 | 1014.7 |
| 20260507045037 | 63 | 30 | 2.0 | 10.0 | 0.00 | 0.01 | 0.01 | 85 | 1014.8 |
| 20260507044559 | 63 | 0 | 1.0 | 12.0 | 0.00 | 0.01 | 0.01 | 84 | 1014.9 |
| 20260507044039 | 63 | 11 | 3.0 | 14.0 | 0.00 | 0.01 | 0.01 | 85 | 1014.6 |
| 20260507043537 | 63 | 0 | 4.0 | 14.0 | 0.00 | 0.01 | 0.01 | 84 | 1014.9 |
| 20260507043100 | 63 | 351 | 2.0 | 11.0 | 0.00 | 0.01 | 0.01 | 84 | 1014.9 |
| 20260507042538 | 63 | 0 | 0.0 | 8.0 | 0.00 | 0.01 | 0.01 | 84 | 1014.7 |
| 20260507042041 | 63 | 32 | 1.0 | 9.0 | 0.00 | 0.01 | 0.01 | 84 | 1014.7 |
| 20260507041555 | 63 | 0 | 0.0 | 12.0 | 0.00 | 0.01 | 0.01 | 84 | 1015.1 |
| 20260507041037 | 63 | 0 | 2.0 | 14.0 | 0.00 | 0.01 | 0.01 | 84 | 1014.9 |
| 20260507040537 | 63 | 37 | 3.0 | 14.0 | 0.00 | 0.01 | 0.01 | 84 | 1014.5 |
| 20260507040052 | 63 | 0 | 1.0 | 12.0 | 0.00 | 0.01 | 0.01 | 84 | 1014.7 |
| 20260507035538 | 63 | 0 | 2.0 | 13.0 | 0.00 | 0.01 | 0.01 | 84 | 1014.5 |
| 20260507035038 | 63 | 0 | 2.0 | 13.0 | 0.00 | 0.01 | 0.01 | 84 | 1014.7 |
| 20260507034546 | 63 | 0 | 0.0 | 11.0 | 0.00 | 0.01 | 0.01 | 84 | 1014.5 |
| 20260507034038 | 63 | 0 | 1.0 | 11.0 | 0.00 | 0.01 | 0.01 | 84 | 1014.4 |
| 20260507033539 | 63 | 0 | 0.0 | 10.0 | 0.00 | 0.01 | 0.01 | 84 | 1014.5 |
| 20260507033047 | 63 | 0 | 1.0 | 10.0 | 0.00 | 0.01 | 0.01 | 84 | 1014.6 |
| 20260507032538 | 64 | 0 | 0.0 | 9.0 | 0.00 | 0.01 | 0.01 | 84 | 1014.4 |
| 20260507032037 | 64 | 0 | 0.0 | 8.0 | 0.00 | 0.01 | 0.01 | 84 | 1014.4 |
| 20260507031550 | 63 | 0 | 0.0 | 7.0 | 0.00 | 0.01 | 0.01 | 83 | 1014.3 |
| 20260507031037 | 64 | 321 | 0.0 | 10.0 | 0.00 | 0.01 | 0.01 | 84 | 1014.4 |
| 20260507030539 | 64 | 0 | 1.0 | 10.0 | 0.00 | 0.01 | 0.01 | 84 | 1014.4 |
| 20260507030050 | 64 | 0 | 0.0 | 10.0 | 0.00 | 0.01 | 0.01 | 84 | 1014.3 |
| 20260507025537 | 64 | 360 | 0.0 | 11.0 | 0.00 | 0.01 | 0.01 | 84 | 1014.2 |
| 20260507025040 | 64 | 0 | 0.0 | 11.0 | 0.00 | 0.01 | 0.01 | 84 | 1014.1 |
| 20260507024552 | 64 | 21 | 2.0 | 11.0 | 0.00 | 0.01 | 0.01 | 84 | 1013.6 |
| 20260507024038 | 64 | 0 | 1.0 | 12.0 | 0.00 | 0.01 | 0.01 | 84 | 1013.5 |
| 20260507023537 | 64 | 0 | 1.0 | 12.0 | 0.00 | 0.01 | 0.01 | 84 | 1013.4 |
| 20260507023057 | 64 | 0 | 2.0 | 12.0 | 0.00 | 0.01 | 0.01 | 84 | 1013.4 |
| 20260507022537 | 64 | 0 | 1.0 | 12.0 | 0.00 | 0.01 | 0.01 | 84 | 1013.5 |
| 20260507022038 | 64 | 5 | 0.0 | 10.0 | 0.00 | 0.01 | 0.01 | 84 | 1013.3 |
| 20260507021542 | 64 | 342 | 1.0 | 10.0 | 0.00 | 0.01 | 0.01 | 84 | 1013.3 |
| 20260507021038 | 64 | 0 | 0.0 | 8.0 | 0.00 | 0.01 | 0.01 | 83 | 1013.2 |
| 20260507020538 | 64 | 0 | 0.0 | 9.0 | 0.00 | 0.01 | 0.01 | 84 | 1013.1 |
| 20260507020053 | 64 | 352 | 1.0 | 9.0 | 0.00 | 0.01 | 0.01 | 83 | 1013.0 |
| 20260507015537 | 64 | 0 | 0.0 | 10.0 | 0.00 | 0.01 | 0.01 | 83 | 1013.1 |
| 20260507015037 | 65 | 0 | 1.0 | 13.0 | 0.00 | 0.01 | 0.01 | 83 | 1013.0 |
| 20260507014556 | 65 | 0 | 2.0 | 13.0 | 0.00 | 0.01 | 0.01 | 83 | 1012.7 |
| 20260507014037 | 65 | 0 | 2.0 | 13.0 | 0.00 | 0.01 | 0.01 | 83 | 1012.7 |
| 20260507013538 | 65 | 347 | 1.0 | 8.0 | 0.00 | 0.01 | 0.01 | 83 | 1012.8 |
| 20260507013046 | 65 | 0 | 0.0 | 8.0 | 0.00 | 0.01 | 0.01 | 83 | 1012.5 |
| 20260507012542 | 65 | 0 | 0.0 | 8.0 | 0.00 | 0.01 | 0.01 | 82 | 1012.5 |
| 20260507012038 | 65 | 0 | 0.0 | 8.0 | 0.00 | 0.01 | 0.01 | 82 | 1012.4 |
| 20260507011547 | 65 | 0 | 0.0 | 8.0 | 0.00 | 0.01 | 0.01 | 82 | 1012.2 |
| 20260507011038 | 66 | 0 | 1.0 | 8.0 | 0.00 | 0.01 | 0.01 | 82 | 1012.0 |
| 20260507010537 | 66 | 0 | 0.0 | 8.0 | 0.00 | 0.01 | 0.01 | 81 | 1012.0 |
| 20260507010046 | 66 | 352 | 0.0 | 7.0 | 0.00 | 0.01 | 0.01 | 82 | 1012.1 |
| 20260507005537 | 66 | 0 | 0.0 | 7.0 | 0.00 | 0.01 | 0.01 | 82 | 1011.8 |
| 20260507005037 | 66 | 0 | 0.0 | 7.0 | 0.00 | 0.01 | 0.01 | 81 | 1011.6 |
| 20260507004545 | 67 | 343 | 0.0 | 5.0 | 0.00 | 0.01 | 0.01 | 81 | 1011.7 |
| 20260507004037 | 67 | 0 | 0.0 | 10.0 | 0.00 | 0.01 | 0.01 | 81 | 1011.5 |
| 20260507003538 | 67 | 0 | 0.0 | 10.0 | 0.00 | 0.01 | 0.01 | 81 | 1011.4 |
| 20260507003047 | 67 | 0 | 0.0 | 9.0 | 0.00 | 0.01 | 0.01 | 81 | 1011.3 |
| 20260507002540 | 67 | 0 | 1.0 | 10.0 | 0.00 | 0.01 | 0.01 | 80 | 1011.4 |
| 20260507002037 | 68 | 0 | 0.0 | 10.0 | 0.00 | 0.01 | 0.01 | 80 | 1011.6 |
| 20260507001608 | 68 | 342 | 0.0 | 13.0 | 0.00 | 0.01 | 0.01 | 80 | 1011.5 |
| 20260507001037 | 68 | 0 | 2.0 | 13.0 | 0.00 | 0.01 | 0.01 | 80 | 1011.4 |
| 20260507000541 | 68 | 0 | 0.0 | 9.0 | 0.00 | 0.01 | 0.01 | 79 | 1011.4 |
| 20260507000045 | 69 | 0 | 0.0 | 10.0 | 0.00 | 0.01 | 0.01 | 79 | 1011.3 |
| 20260506235540 | 69 | 0 | 0.0 | 12.0 | 0.00 | 0.01 | 0.01 | 79 | 1011.2 |
| 20260506235037 | 69 | 5 | 1.0 | 12.0 | 0.00 | 0.01 | 0.01 | 79 | 1011.0 |
| 20260506234551 | 70 | 18 | 0.0 | 8.0 | 0.00 | 0.01 | 0.01 | 78 | 1011.0 |
| 20260506234037 | 70 | 0 | 0.0 | 10.0 | 0.00 | 0.01 | 0.01 | 79 | 1010.9 |
| 20260506233540 | 70 | 0 | 1.0 | 13.0 | 0.00 | 0.01 | 0.01 | 78 | 1011.0 |
| 20260506233046 | 70 | 0 | 2.0 | 13.0 | 0.00 | 0.01 | 0.01 | 78 | 1010.9 |
| 20260506232539 | 71 | 0 | 1.0 | 13.0 | 0.00 | 0.01 | 0.01 | 78 | 1010.8 |
| 20260506232037 | 71 | 0 | 3.0 | 11.0 | 0.00 | 0.01 | 0.01 | 77 | 1010.9 |
| 20260506231554 | 71 | 24 | 1.0 | 8.0 | 0.00 | 0.01 | 0.01 | 77 | 1010.8 |
| 20260506231037 | 72 | 0 | 0.0 | 12.0 | 0.00 | 0.01 | 0.01 | 77 | 1010.7 |
| 20260506230537 | 72 | 0 | 0.0 | 12.0 | 0.00 | 0.01 | 0.01 | 78 | 1010.7 |
| 20260506230056 | 72 | 0 | 0.0 | 13.0 | 0.00 | 0.01 | 0.01 | 78 | 1010.7 |
| 20260506225537 | 72 | 34 | 1.0 | 13.0 | 0.00 | 0.01 | 0.01 | 78 | 1010.7 |
| 20260506225037 | 72 | 352 | 1.0 | 11.0 | 0.00 | 0.01 | 0.01 | 77 | 1010.5 |
| 20260506224553 | 73 | 320 | 0.0 | 13.0 | 0.00 | 0.01 | 0.01 | 78 | 1010.6 |
| 20260506224037 | 73 | 0 | 2.0 | 13.0 | 0.00 | 0.01 | 0.01 | 76 | 1010.5 |
| 20260506223539 | 74 | 312 | 1.0 | 12.0 | 0.00 | 0.01 | 0.01 | 76 | 1010.6 |
| 20260506223050 | 74 | 0 | 0.0 | 12.0 | 0.00 | 0.01 | 0.01 | 77 | 1010.4 |
| 20260506222538 | 74 | 0 | 1.0 | 9.0 | 0.00 | 0.01 | 0.01 | 76 | 1010.6 |
| 20260506222037 | 74 | 0 | 0.0 | 10.0 | 0.00 | 0.01 | 0.01 | 77 | 1010.6 |
| 20260506221604 | 74 | 5 | 0.0 | 10.0 | 0.00 | 0.01 | 0.01 | 77 | 1010.6 |
| 20260506221037 | 74 | 342 | 0.0 | 10.0 | 0.00 | 0.01 | 0.01 | 77 | 1010.3 |
| 20260506220538 | 74 | 324 | 0.0 | 12.0 | 0.00 | 0.01 | 0.01 | 76 | 1010.3 |
| 20260506220054 | 74 | 0 | 0.0 | 14.0 | 0.00 | 0.01 | 0.01 | 77 | 1010.4 |
| 20260506215539 | 74 | 0 | 1.0 | 14.0 | 0.00 | 0.01 | 0.01 | 79 | 1010.2 |
| 20260506215037 | 74 | 352 | 1.0 | 12.0 | 0.00 | 0.01 | 0.01 | 78 | 1010.2 |
| 20260506214547 | 74 | 0 | 1.0 | 11.0 | 0.00 | 0.01 | 0.01 | 80 | 1010.1 |
| 20260506214038 | 73 | 0 | 0.0 | 11.0 | 0.00 | 0.01 | 0.01 | 79 | 1010.0 |
| 20260506213539 | 73 | 0 | 0.0 | 11.0 | 0.00 | 0.01 | 0.01 | 80 | 1010.2 |
| 20260506213046 | 73 | 0 | 2.0 | 13.0 | 0.00 | 0.01 | 0.01 | 78 | 1010.2 |
| 20260506212538 | 74 | 348 | 1.0 | 16.0 | 0.00 | 0.01 | 0.01 | 78 | 1010.1 |
| 20260506212039 | 74 | 0 | 0.0 | 16.0 | 0.00 | 0.01 | 0.01 | 79 | 1010.1 |
| 20260506211548 | 75 | 302 | 1.0 | 16.0 | 0.00 | 0.01 | 0.01 | 79 | 1010.3 |
| 20260506211039 | 76 | 338 | 1.0 | 14.0 | 0.00 | 0.01 | 0.01 | 79 | 1010.3 |
| 20260506210539 | 76 | 0 | 2.0 | 15.0 | 0.00 | 0.01 | 0.01 | 78 | 1010.2 |
| 20260506210057 | 78 | 327 | 3.0 | 15.0 | 0.00 | 0.01 | 0.01 | 78 | 1010.0 |
| 20260506205541 | 79 | 303 | 0.0 | 9.0 | 0.00 | 0.01 | 0.01 | 79 | 1009.9 |
| 20260506205039 | 79 | 0 | 1.0 | 10.0 | 0.00 | 0.01 | 0.01 | 79 | 1009.9 |
| 20260506204555 | 79 | 22 | 0.0 | 10.0 | 0.00 | 0.01 | 0.01 | 79 | 1009.8 |
| 20260506204038 | 80 | 317 | 1.0 | 10.0 | 0.00 | 0.01 | 0.01 | 77 | 1009.8 |
| 20260506203538 | 81 | 0 | 0.0 | 9.0 | 0.00 | 0.01 | 0.01 | 77 | 1009.7 |
| 20260506203051 | 81 | 0 | 1.0 | 9.0 | 0.00 | 0.01 | 0.01 | 76 | 1009.9 |
| 20260506202541 | 81 | 0 | 1.0 | 9.0 | 0.00 | 0.01 | 0.01 | 76 | 1009.9 |
| 20260506202039 | 82 | 0 | 0.0 | 1.0 | 0.00 | 0.01 | 0.01 | 77 | 1010.0 |
| 20260506201548 | 80 | 0 | 0.0 | 1.0 | 0.00 | 0.01 | 0.01 | 78 | 1009.9 |
| 20260506201037 | 80 | 0 | 0.0 | 1.0 | 0.00 | 0.01 | 0.01 | 78 | 1009.9 |
| 20260506200539 | 80 | 0 | 0.0 | 0.0 | 0.00 | 0.01 | 0.01 | 76 | 1009.9 |
| 20260506200049 | 80 | 0 | 0.0 | 0.0 | 0.00 | 0.01 | 0.01 | 77 | 1010.0 |
| 20260506195538 | 79 | 0 | 0.0 | 0.0 | 0.00 | 0.01 | 0.01 | 80 | 1010.0 |
| 20260506195037 | 79 | 0 | 0.0 | 0.0 | 0.00 | 0.01 | 0.01 | 79 | 1010.0 |
| 20260506194544 | 78 | 0 | 0.0 | 3.0 | 0.00 | 0.01 | 0.01 | 77 | 1010.1 |
| 20260506194038 | 78 | 0 | 0.0 | 5.0 | 0.00 | 0.01 | 0.01 | 79 | 1010.1 |
| 20260506193538 | 79 | 0 | 1.0 | 5.0 | 0.00 | 0.01 | 0.01 | 78 | 1010.1 |
| 20260506193051 | 79 | 0 | 0.0 | 4.0 | 0.00 | 0.01 | 0.01 | 79 | 1010.1 |
| 20260506192537 | 78 | 0 | 0.0 | 5.0 | 0.00 | 0.01 | 0.01 | 79 | 1010.1 |
| 20260506192037 | 78 | 0 | 0.0 | 5.0 | 0.00 | 0.01 | 0.01 | 78 | 1010.3 |
| 20260506191553 | 78 | 0 | 0.0 | 4.0 | 0.00 | 0.01 | 0.01 | 79 | 1010.2 |
| 20260506191038 | 77 | 0 | 1.0 | 8.0 | 0.00 | 0.01 | 0.01 | 79 | 1010.3 |
| 20260506190538 | 76 | 0 | 0.0 | 8.0 | 0.00 | 0.01 | 0.01 | 81 | 1010.4 |
| 20260506190056 | 76 | 0 | 3.0 | 7.0 | 0.00 | 0.01 | 0.01 | 82 | 1010.2 |
| 20260506185537 | 75 | 0 | 0.0 | 0.0 | 0.00 | 0.01 | 0.01 | 81 | 1010.2 |
| 20260506185037 | 74 | 0 | 0.0 | 5.0 | 0.00 | 0.01 | 0.01 | 83 | 1010.3 |
| 20260506184553 | 73 | 0 | 0.0 | 9.0 | 0.00 | 0.01 | 0.01 | 81 | 1010.4 |
| 20260506184038 | 74 | 0 | 1.0 | 9.0 | 0.00 | 0.01 | 0.01 | 82 | 1010.5 |
| 20260506183536 | 73 | 0 | 0.0 | 7.0 | 0.00 | 0.01 | 0.01 | 84 | 1010.7 |
| 20260506183104 | 71 | 0 | 0.0 | 7.0 | 0.00 | 0.01 | 0.01 | 84 | 1011.0 |
| 20260506182538 | 71 | 0 | 0.0 | 6.0 | 0.01 | 0.01 | 0.01 | 85 | 1010.9 |
| 20260506182038 | 70 | 0 | 0.0 | 8.0 | 0.01 | 0.01 | 0.01 | 87 | 1010.9 |
| 20260506181555 | 69 | 0 | 0.0 | 10.0 | 0.01 | 0.01 | 0.01 | 88 | 1011.1 |
| 20260506181038 | 68 | 33 | 2.0 | 10.0 | 0.01 | 0.01 | 0.01 | 89 | 1011.3 |
| 20260506180540 | 68 | 22 | 2.0 | 10.0 | 0.01 | 0.01 | 0.01 | 89 | 1011.1 |
| 20260506180059 | 68 | 0 | 1.0 | 9.0 | 0.01 | 0.01 | 0.01 | 91 | 1011.1 |
| 20260506175538 | 67 | 37 | 2.0 | 11.0 | 0.01 | 0.01 | 0.01 | 91 | 1011.2 |
| 20260506175040 | 67 | 0 | 0.0 | 11.0 | 0.01 | 0.01 | 0.01 | 91 | 1011.3 |
| 20260506174548 | 66 | 0 | 1.0 | 11.0 | 0.01 | 0.01 | 0.01 | 92 | 1011.5 |
| 20260506174037 | 66 | 21 | 0.0 | 14.0 | 0.01 | 0.01 | 0.01 | 91 | 1011.6 |
| 20260506173537 | 66 | 16 | 1.0 | 14.0 | 0.01 | 0.01 | 0.01 | 90 | 1011.6 |
| 20260506173058 | 67 | 0 | 1.0 | 8.0 | 0.01 | 0.01 | 0.01 | 90 | 1011.8 |
| 20260506172538 | 67 | 0 | 0.0 | 9.0 | 0.00 | 0.00 | 0.00 | 90 | 1012.0 |
| 20260506172037 | 68 | 0 | 1.0 | 9.0 | 0.00 | 0.00 | 0.00 | 89 | 1011.8 |
| 20260506171550 | 69 | 0 | 2.0 | 14.0 | 0.00 | 0.00 | 0.00 | 88 | 1012.0 |
| 20260506171037 | 71 | 350 | 2.0 | 14.0 | 0.00 | 0.00 | 0.00 | 87 | 1012.2 |
| 20260506170538 | 73 | 0 | 1.0 | 13.0 | 0.00 | 0.00 | 0.00 | 86 | 1012.0 |
| 20260506170054 | 74 | 5 | 2.0 | 14.0 | 0.00 | 0.00 | 0.00 | 85 | 1012.0 |
| 20260506165538 | 77 | 312 | 1.0 | 14.0 | 0.00 | 0.00 | 0.00 | 86 | 1011.9 |
| 20260506165038 | 78 | 0 | 0.0 | 0.0 | 0.00 | 0.00 | 0.00 | 89 | 1011.9 |
| 20260506164558 | 78 | 0 | 0.0 | 0.0 | 0.00 | 0.00 | 0.00 | 88 | 1011.9 |
| 20260506164037 | 78 | 0 | 0.0 | 0.0 | 0.00 | 0.00 | 0.00 | 89 | 1011.9 |
| 20260506163537 | 78 | 0 | 0.0 | 0.0 | 0.00 | 0.00 | 0.00 | 89 | 1011.9 |
| 20260506163113 | 78 | 0 | 0.0 | 0.0 | 0.00 | 0.00 | 0.00 | 88 | 1011.7 |
| 20260506162541 | 78 | 0 | 0.0 | 0.0 | 0.00 | 0.00 | 0.00 | 88 | 1011.7 |
| 20260506162041 | 78 | 0 | 0.0 | 0.0 | 0.00 | 0.00 | 0.00 | 87 | 1011.7 |
| 20260506161547 | 79 | 0 | 0.0 | 0.0 | 0.00 | 0.00 | 0.00 | 87 | 1011.7 |
| 20260506161038 | 79 | 0 | 0.0 | 0.0 | 0.00 | 0.00 | 0.00 | 86 | 1011.6 |
| 20260506160537 | 80 | 0 | 0.0 | 0.0 | 0.00 | 0.00 | 0.00 | 86 | 1011.3 |
| 20260506160059 | 80 | 0 | 0.0 | 0.0 | 0.00 | 0.00 | 0.00 | 85 | 1011.2 |
| 20260506155538 | 80 | 0 | 0.0 | 0.0 | 0.00 | 0.00 | 0.00 | 85 | 1010.9 |
| 20260506155038 | 80 | 0 | 0.0 | 0.0 | 0.00 | 0.00 | 0.00 | 85 | 1010.8 |
| 20260506154554 | 80 | 0 | 0.0 | 0.0 | 0.00 | 0.00 | 0.00 | 87 | 1010.7 |
| 20260506154038 | 79 | 0 | 0.0 | 0.0 | 0.00 | 0.00 | 0.00 | 88 | 1010.7 |
| 20260506153541 | 78 | 0 | 0.0 | 0.0 | 0.00 | 0.00 | 0.00 | 88 | 1010.5 |
| 20260506153046 | 78 | 0 | 0.0 | 0.0 | 0.00 | 0.00 | 0.00 | 88 | 1010.7 |
| 20260506152537 | 78 | 0 | 0.0 | 0.0 | 0.00 | 0.00 | 0.00 | 88 | 1010.9 |
| 20260506152037 | 78 | 0 | 0.0 | 0.0 | 0.00 | 0.00 | 0.00 | 88 | 1010.9 |
| 20260506151545 | 78 | 0 | 0.0 | 0.0 | 0.00 | 0.00 | 0.00 | 88 | 1010.8 |
| 20260506151037 | 78 | 0 | 0.0 | 0.0 | 0.00 | 0.00 | 0.00 | 88 | 1010.6 |
| 20260506150539 | 78 | 0 | 0.0 | 0.0 | 0.00 | 0.00 | 0.00 | 89 | 1010.5 |
| 20260506150059 | 78 | 0 | 0.0 | 0.0 | 0.00 | 0.00 | 0.00 | 89 | 1010.7 |
| 20260506145537 | 78 | 0 | 0.0 | 0.0 | 0.00 | 0.00 | 0.00 | 89 | 1010.7 |
| 20260506145038 | 78 | 0 | 0.0 | 0.0 | 0.00 | 0.00 | 0.00 | 89 | 1010.9 |
| 20260506144550 | 78 | 0 | 0.0 | 0.0 | 0.00 | 0.00 | 0.00 | 89 | 1010.9 |
| 20260506144037 | 78 | 0 | 0.0 | 0.0 | 0.00 | 0.00 | 0.00 | 89 | 1010.8 |
| 20260506143538 | 78 | 0 | 0.0 | 0.0 | 0.00 | 0.00 | 0.00 | 89 | 1010.9 |
| 20260506143048 | 78 | 0 | 0.0 | 0.0 | 0.00 | 0.00 | 0.00 | 88 | 1010.7 |
| 20260506142537 | 78 | 0 | 0.0 | 0.0 | 0.00 | 0.00 | 0.00 | 89 | 1010.6 |
| 20260506142037 | 78 | 0 | 0.0 | 1.0 | 0.00 | 0.00 | 0.00 | 89 | 1010.3 |
| 20260506141548 | 77 | 0 | 0.0 | 1.0 | 0.00 | 0.00 | 0.00 | 89 | 1010.3 |
| 20260506141039 | 77 | 0 | 0.0 | 0.0 | 0.00 | 0.00 | 0.00 | 90 | 1010.1 |
| 20260506140538 | 77 | 0 | 0.0 | 0.0 | 0.00 | 0.00 | 0.00 | 90 | 1010.2 |
| 20260506140046 | 77 | 0 | 0.0 | 0.0 | 0.00 | 0.00 | 0.00 | 90 | 1010.1 |
| 20260506135537 | 77 | 0 | 0.0 | 0.0 | 0.00 | 0.00 | 0.00 | 91 | 1010.2 |
| 20260506135037 | 76 | 0 | 0.0 | 0.0 | 0.00 | 0.00 | 0.00 | 91 | 1010.0 |
| 20260506134546 | 76 | 0 | 0.0 | 0.0 | 0.00 | 0.00 | 0.00 | 92 | 1010.1 |
| 20260506134040 | 76 | 0 | 0.0 | 0.0 | 0.00 | 0.00 | 0.00 | 92 | 1010.0 |
| 20260506133537 | 76 | 0 | 0.0 | 0.0 | 0.00 | 0.00 | 0.00 | 92 | 1010.2 |
| 20260506133108 | 75 | 0 | 0.0 | 0.0 | 0.00 | 0.00 | 0.00 | 92 | 1010.1 |
| 20260506132538 | 75 | 0 | 0.0 | 0.0 | 0.00 | 0.00 | 0.00 | 93 | 1009.9 |
| 20260506132039 | 75 | 0 | 0.0 | 0.0 | 0.00 | 0.00 | 0.00 | 93 | 1009.9 |
| 20260506131555 | 75 | 0 | 0.0 | 0.0 | 0.00 | 0.00 | 0.00 | 93 | 1009.9 |
| 20260506131038 | 75 | 0 | 0.0 | 0.0 | 0.00 | 0.00 | 0.00 | 93 | 1010.0 |
| 20260506130538 | 75 | 0 | 0.0 | 0.0 | 0.00 | 0.00 | 0.00 | 93 | 1010.0 |
| 20260506130047 | 75 | 0 | 0.0 | 0.0 | 0.00 | 0.00 | 0.00 | 93 | 1009.9 |
| 20260506125537 | 75 | 0 | 0.0 | 0.0 | 0.00 | 0.00 | 0.00 | 93 | 1009.9 |
| 20260506125037 | 75 | 0 | 0.0 | 0.0 | 0.00 | 0.00 | 0.00 | 93 | 1009.9 |
| 20260506124546 | 74 | 0 | 0.0 | 0.0 | 0.00 | 0.00 | 0.00 | 93 | 1009.9 |
| 20260506124037 | 74 | 0 | 0.0 | 0.0 | 0.00 | 0.00 | 0.00 | 93 | 1009.7 |
| 20260506123540 | 74 | 0 | 0.0 | 0.0 | 0.00 | 0.00 | 0.00 | 93 | 1009.8 |
| 20260506123045 | 74 | 0 | 0.0 | 0.0 | 0.00 | 0.00 | 0.00 | 93 | 1009.8 |
| 20260506122536 | 74 | 0 | 0.0 | 0.0 | 0.00 | 0.00 | 0.00 | 93 | 1009.9 |
| 20260506122040 | 74 | 0 | 0.0 | 0.0 | 0.00 | 0.00 | 0.00 | 93 | 1009.9 |
| 20260506121553 | 74 | 0 | 0.0 | 0.0 | 0.00 | 0.00 | 0.00 | 93 | 1009.8 |
| 20260506121037 | 74 | 0 | 0.0 | 0.0 | 0.00 | 0.00 | 0.00 | 93 | 1009.7 |
| 20260506120538 | 74 | 0 | 0.0 | 0.0 | 0.00 | 0.00 | 0.00 | 93 | 1009.7 |
| 20260506120057 | 74 | 0 | 0.0 | 0.0 | 0.00 | 0.00 | 0.00 | 93 | 1009.7 |
| 20260506115538 | 74 | 0 | 0.0 | 0.0 | 0.00 | 0.00 | 0.00 | 93 | 1009.6 |
| 20260506115037 | 74 | 0 | 0.0 | 0.0 | 0.00 | 0.00 | 0.00 | 93 | 1009.6 |
| 20260506114546 | 74 | 0 | 0.0 | 0.0 | 0.00 | 0.00 | 0.00 | 93 | 1009.6 |
| 20260506114038 | 74 | 0 | 0.0 | 0.0 | 0.00 | 0.00 | 0.00 | 92 | 1009.6 |
| 20260506113538 | 74 | 0 | 0.0 | 0.0 | 0.00 | 0.00 | 0.00 | 92 | 1009.5 |
| 20260506113045 | 74 | 0 | 0.0 | 0.0 | 0.00 | 0.00 | 0.00 | 92 | 1009.4 |
| 20260506112540 | 74 | 0 | 0.0 | 0.0 | 0.00 | 0.00 | 0.00 | 92 | 1009.4 |
| 20260506112037 | 74 | 0 | 0.0 | 0.0 | 0.00 | 0.00 | 0.00 | 92 | 1009.5 |
| 20260506111548 | 74 | 0 | 0.0 | 0.0 | 0.00 | 0.00 | 0.00 | 92 | 1009.3 |
| 20260506111037 | 74 | 0 | 0.0 | 0.0 | 0.00 | 0.00 | 0.00 | 92 | 1009.4 |
| 20260506110537 | 74 | 0 | 0.0 | 0.0 | 0.00 | 0.00 | 0.00 | 92 | 1009.3 |
| 20260506105538 | 74 | 0 | 0.0 | 0.0 | 0.00 | 0.00 | 0.00 | 92 | 1009.2 |
| 20260506105039 | 74 | 0 | 0.0 | 0.0 | 0.00 | 0.00 | 0.00 | 92 | 1009.1 |
| 20260506104601 | 74 | 0 | 0.0 | 0.0 | 0.00 | 0.00 | 0.00 | 92 | 1009.1 |
| 20260506104038 | 74 | 0 | 0.0 | 0.0 | 0.00 | 0.00 | 0.00 | 92 | 1008.9 |
| 20260506103538 | 74 | 0 | 0.0 | 0.0 | 0.00 | 0.00 | 0.00 | 92 | 1008.9 |
| 20260506103049 | 74 | 0 | 0.0 | 0.0 | 0.00 | 0.00 | 0.00 | 92 | 1008.9 |
| 20260506102538 | 75 | 0 | 0.0 | 0.0 | 0.00 | 0.00 | 0.00 | 92 | 1008.9 |
| 20260506102040 | 74 | 0 | 0.0 | 0.0 | 0.00 | 0.00 | 0.00 | 92 | 1008.8 |
| 20260506101554 | 74 | 0 | 0.0 | 0.0 | 0.00 | 0.00 | 0.00 | 92 | 1008.6 |